EW9807 Weather Reports


Display with metric or nautical units.
time (UTC)temp
F
wind
direction
speed
MPH
gust
MPH
rain 1hr
in
rain 24hr
in
rain mn
in
humidity
%
barometer
mb
20260509162557 66 170 1.0 5.0 0.00 0.00 0.00 88 1013.3
20260509162047 66 169 3.0 6.0 0.00 0.00 0.00 87 1013.3
20260509161556 66 203 3.0 5.0 0.00 0.00 0.00 89 1013.4
20260509161047 65 146 1.0 5.0 0.00 0.00 0.00 89 1013.4
20260509160552 65 176 2.0 5.0 0.00 0.00 0.00 89 1013.0
20260509160101 65 173 3.0 5.0 0.00 0.00 0.00 90 1013.1
20260509155551 65 183 2.0 4.0 0.00 0.00 0.00 90 1013.3
20260509154555 65 173 2.0 4.0 0.00 0.00 0.00 90 1013.0
20260509153558 65 175 2.0 4.0 0.00 0.00 0.00 91 1012.9
20260509153047 65 187 0.0 4.0 0.00 0.00 0.00 91 1012.9
20260509152549 64 189 1.0 6.0 0.00 0.00 0.00 91 1012.9
20260509152057 64 193 3.0 6.0 0.00 0.00 0.00 91 1012.9
20260509151058 64 195 3.0 7.0 0.00 0.00 0.00 91 1013.2
20260509150549 64 159 2.0 6.0 0.00 0.00 0.00 91 1013.5
20260509145550 63 151 2.0 6.0 0.00 0.00 0.00 92 1013.4
20260509144548 63 200 1.0 5.0 0.00 0.00 0.00 92 1013.5
20260509144057 63 183 1.0 5.0 0.00 0.00 0.00 93 1013.7
20260509143605 63 195 1.0 6.0 0.00 0.00 0.00 93 1013.6
20260509143053 62 212 3.0 8.0 0.00 0.00 0.00 93 1013.7
20260509142558 62 160 4.0 10.0 0.00 0.00 0.00 94 1013.6
20260509142049 62 185 2.0 10.0 0.00 0.00 0.00 94 1013.6
20260509141553 62 181 2.0 8.0 0.00 0.00 0.00 94 1013.5
20260509141101 62 182 3.0 8.0 0.00 0.00 0.00 94 1013.6
20260509140550 62 190 3.0 6.0 0.00 0.00 0.00 94 1013.5
20260509140056 61 190 3.0 7.0 0.00 0.00 0.00 94 1013.5
20260509140006 61 166 1.0 7.0 0.00 0.00 0.00 94 1012.8
20260509135047 61 173 3.0 8.0 0.00 0.00 0.00 95 1013.5
20260509134556 61 167 2.0 10.0 0.00 0.00 0.00 95 1013.5
20260509133558 61 214 3.0 9.0 0.00 0.00 0.00 94 1013.4
20260509133105 61 178 4.0 6.0 0.00 0.00 0.00 95 1013.1
20260509132553 61 169 1.0 6.0 0.00 0.00 0.00 95 1012.9
20260509132059 61 176 2.0 6.0 0.00 0.00 0.00 95 1012.7
20260509131101 61 176 2.0 5.0 0.00 0.00 0.00 95 1012.7
20260509130056 61 227 3.0 8.0 0.00 0.00 0.00 95 1013.1
20260509125600 61 231 3.0 8.0 0.00 0.00 0.00 95 1013.0
20260509124601 61 221 2.0 7.0 0.00 0.00 0.00 95 1012.9
20260509124048 61 245 2.0 7.0 0.00 0.00 0.00 95 1013.0
20260509123558 60 188 1.0 7.0 0.00 0.00 0.00 95 1012.9
20260509123050 60 169 3.0 6.0 0.00 0.00 0.00 95 1012.8
20260509122045 60 192 2.0 7.0 0.00 0.00 0.00 95 1012.8
20260509121557 60 181 2.0 8.0 0.00 0.00 0.00 95 1012.8
20260509121048 60 193 2.0 8.0 0.00 0.00 0.00 95 1012.7
20260509120555 60 187 2.0 5.0 0.00 0.00 0.00 95 1012.6
20260509120104 60 200 2.0 5.0 0.00 0.00 0.00 95 1012.5
20260509115553 60 198 3.0 5.0 0.00 0.00 0.00 95 1012.7
20260509115057 60 199 1.0 5.0 0.00 0.00 0.00 95 1012.6
20260509114102 59 190 2.0 4.0 0.00 0.00 0.00 94 1012.8
20260509113551 59 169 0.0 3.0 0.00 0.00 0.00 94 1012.8
20260509113100 59 158 0.0 3.0 0.00 0.00 0.00 94 1012.5
20260509112101 59 158 0.0 0.0 0.00 0.00 0.00 94 1012.0
20260509111551 59 158 0.0 0.0 0.00 0.00 0.00 94 1011.9
20260509111059 59 158 0.0 0.0 0.00 0.00 0.00 94 1012.0
20260509110547 59 158 0.0 0.0 0.00 0.00 0.00 94 1011.9
20260509110127 59 158 0.0 0.0 0.00 0.00 0.00 94 1012.0
20260509105604 59 158 0.0 0.0 0.00 0.00 0.00 94 1012.0
20260509105048 59 158 0.0 1.0 0.00 0.00 0.00 94 1011.8
20260509104601 59 158 0.0 1.0 0.00 0.00 0.00 94 1011.8
20260509103556 58 158 0.0 1.0 0.00 0.00 0.00 94 1012.2
20260509103105 58 158 0.0 1.0 0.00 0.00 0.00 94 1012.2
20260509102551 58 158 0.0 0.0 0.00 0.00 0.00 94 1012.4
20260509101553 58 158 0.0 1.0 0.00 0.00 0.00 94 1012.5
20260509101105 58 158 0.0 1.0 0.00 0.00 0.00 94 1012.4
20260509100555 58 158 0.0 1.0 0.00 0.00 0.00 94 1012.5
20260509095547 58 158 0.0 2.0 0.00 0.00 0.00 94 1012.8
20260509094547 58 158 0.0 0.0 0.00 0.00 0.00 93 1012.9
20260509094054 58 158 0.0 1.0 0.00 0.00 0.00 93 1012.9
20260509093545 58 158 0.0 2.0 0.00 0.00 0.00 93 1012.8
20260509093057 59 158 1.0 2.0 0.00 0.00 0.00 93 1012.7
20260509092602 59 158 0.0 2.0 0.00 0.00 0.00 93 1012.6
20260509092050 59 158 0.0 0.0 0.00 0.00 0.00 93 1012.6
20260509091600 59 158 0.0 0.0 0.00 0.00 0.00 93 1012.6
20260509091048 59 158 0.0 0.0 0.00 0.00 0.00 93 1012.5
20260509090556 59 158 0.0 0.0 0.00 0.00 0.00 93 1012.5
20260509090104 59 158 0.0 0.0 0.00 0.00 0.00 93 1012.4
20260509090003 59 158 0.0 0.0 0.00 0.00 0.00 93 1011.8
20260509085607 59 158 0.0 0.0 0.00 0.00 0.00 93 1012.4
20260509085052 59 158 0.0 0.0 0.00 0.00 0.00 93 1012.6
20260509084559 59 158 0.0 0.0 0.00 0.00 0.00 93 1012.4
20260509084048 59 158 0.0 0.0 0.00 0.00 0.00 93 1012.3
20260509083557 59 158 0.0 0.0 0.00 0.00 0.00 93 1012.2
20260509083104 59 158 0.0 0.0 0.00 0.00 0.00 93 1012.2
20260509082549 59 158 0.0 0.0 0.00 0.00 0.00 93 1012.3
20260509082056 58 158 0.0 0.0 0.00 0.00 0.00 92 1012.3
20260509081605 58 158 0.0 0.0 0.00 0.00 0.00 92 1012.3
20260509081054 59 158 0.0 1.0 0.00 0.00 0.00 92 1012.3
20260509080602 59 158 0.0 1.0 0.00 0.00 0.00 92 1012.3
20260509080050 59 158 0.0 0.0 0.00 0.00 0.00 92 1012.1
20260509075554 59 158 0.0 1.0 0.00 0.00 0.00 92 1012.0
20260509075101 59 158 0.0 1.0 0.00 0.00 0.00 92 1011.7
20260509074554 59 158 0.0 1.0 0.00 0.00 0.00 92 1011.8
20260509074101 59 158 0.0 2.0 0.00 0.00 0.00 91 1011.8
20260509073552 59 158 0.0 3.0 0.00 0.00 0.00 91 1011.8
20260509073102 59 148 1.0 2.0 0.00 0.00 0.00 91 1011.8
20260509071549 59 73 0.0 2.0 0.00 0.00 0.00 91 1011.7
20260509071058 59 73 0.0 3.0 0.00 0.00 0.00 91 1011.7
20260509070549 59 173 0.0 3.0 0.00 0.00 0.00 91 1011.8
20260509070057 59 173 0.0 2.0 0.00 0.00 0.00 91 1012.0
20260509065601 59 183 0.0 0.0 0.00 0.00 0.00 91 1012.1
20260509065049 59 183 0.0 0.0 0.00 0.00 0.00 91 1012.1
20260509064555 59 183 0.0 0.0 0.00 0.00 0.00 91 1012.3
20260509063602 59 183 0.0 0.0 0.00 0.00 0.00 92 1012.6
20260509063054 59 183 0.0 0.0 0.00 0.00 0.00 92 1012.6
20260509062559 59 183 0.0 0.0 0.00 0.00 0.00 92 1012.8
20260509062048 59 183 0.0 0.0 0.00 0.00 0.00 91 1012.9
20260509061558 60 183 0.0 0.0 0.00 0.00 0.00 91 1013.0
20260509061049 60 183 0.0 0.0 0.00 0.00 0.00 91 1013.0
20260509060556 60 183 0.0 0.0 0.00 0.00 0.00 91 1013.1
20260509055550 60 183 0.0 0.0 0.00 0.00 0.00 91 1013.1
20260509055101 60 183 0.0 0.0 0.00 0.00 0.00 91 1013.2
20260509054551 60 183 0.0 0.0 0.00 0.00 0.00 91 1013.2
20260509054059 60 183 0.0 0.0 0.00 0.00 0.00 91 1013.1
20260509053551 60 183 0.0 0.0 0.00 0.00 0.00 90 1013.2
20260509052548 60 183 0.0 0.0 0.00 0.00 0.00 90 1013.3
20260509052055 60 183 0.0 0.0 0.00 0.00 0.00 90 1013.3
20260509051605 61 183 0.0 0.0 0.00 0.00 0.00 90 1013.2
20260509051055 61 183 0.0 0.0 0.00 0.00 0.00 89 1013.4
20260509050605 61 189 0.0 0.0 0.00 0.00 0.00 89 1013.3
20260509050053 61 189 0.0 0.0 0.00 0.00 0.00 89 1013.5
20260509045105 61 189 0.0 0.0 0.00 0.00 0.00 89 1013.5
20260509044045 61 189 0.0 0.0 0.00 0.00 0.00 89 1013.4
20260509043556 61 189 0.0 0.0 0.00 0.00 0.00 89 1013.4
20260509043107 61 189 0.0 0.0 0.00 0.00 0.00 89 1013.7
20260509042551 61 189 0.0 0.0 0.00 0.00 0.00 89 1013.8
20260509041548 61 193 0.0 0.0 0.00 0.00 0.00 89 1013.5
20260509040549 61 193 0.0 0.0 0.00 0.00 0.00 89 1013.8
20260509040503 60 193 0.0 0.0 0.00 0.00 0.00 89 1013.1
20260509040128 61 193 0.0 0.0 0.00 0.00 0.00 89 1013.9
20260509035605 61 193 0.0 0.0 0.00 0.00 0.00 89 1014.0
20260509035054 61 193 0.0 0.0 0.00 0.00 0.00 88 1014.0
20260509034051 61 193 0.0 0.0 0.00 0.00 0.00 88 1014.1
20260509033053 61 193 0.0 0.0 0.00 0.00 0.00 88 1014.1
20260509032600 61 193 0.0 0.0 0.00 0.00 0.00 87 1014.0
20260509032046 61 193 0.0 0.0 0.00 0.00 0.00 87 1014.1
20260509031556 61 193 0.0 0.0 0.00 0.00 0.00 87 1014.1
20260509031101 61 193 0.0 0.0 0.00 0.00 0.00 86 1014.1
20260509030549 61 193 0.0 0.0 0.00 0.00 0.00 86 1014.0
20260509030501 61 193 0.0 0.0 0.00 0.00 0.00 86 1013.3
20260509030129 62 193 0.0 0.0 0.00 0.00 0.00 85 1014.1
20260509030028 61 193 0.0 0.0 0.00 0.00 0.00 85 1013.4
20260509025546 62 193 0.0 0.0 0.00 0.00 0.00 85 1014.2
20260509025058 62 193 0.0 0.0 0.00 0.00 0.00 85 1014.1
20260509024545 62 193 0.0 0.0 0.00 0.00 0.00 85 1014.1
20260509024058 62 193 0.0 0.0 0.00 0.00 0.00 85 1014.1
20260509023544 62 193 0.0 0.0 0.00 0.00 0.00 84 1014.2
20260509023050 63 193 0.0 0.0 0.00 0.00 0.00 83 1014.2
20260509022048 63 193 0.0 1.0 0.00 0.00 0.00 82 1014.2
20260509021600 63 193 0.0 1.0 0.00 0.00 0.00 82 1014.3
20260509020602 63 193 0.0 1.0 0.00 0.00 0.00 82 1014.5
20260509020110 63 193 0.0 1.0 0.00 0.00 0.00 81 1014.5
20260509020021 62 193 0.0 1.0 0.00 0.00 0.00 81 1013.7
20260509015549 63 193 0.0 1.0 0.00 0.00 0.00 81 1014.4
20260509014550 63 193 1.0 2.0 0.00 0.00 0.00 81 1014.3
20260509013058 63 193 0.0 1.0 0.00 0.00 0.00 80 1014.4
20260509012602 63 193 0.0 1.0 0.00 0.00 0.00 80 1014.2
20260509012049 63 193 0.0 2.0 0.00 0.00 0.00 80 1014.3
20260509011602 63 193 1.0 2.0 0.00 0.00 0.00 80 1014.2
20260509011054 63 193 0.0 0.0 0.00 0.00 0.00 80 1014.4
20260509010602 63 193 0.0 0.0 0.00 0.00 0.00 80 1014.3
20260509005600 63 193 0.0 0.0 0.00 0.00 0.00 79 1014.5
20260509005107 63 193 0.0 0.0 0.00 0.00 0.00 79 1014.6
20260509005021 63 193 0.0 0.0 0.00 0.00 0.00 79 1014.0
20260509004549 64 193 0.0 0.0 0.00 0.00 0.00 79 1014.7
20260509003549 64 193 0.0 2.0 0.00 0.00 0.00 78 1014.6
20260509003058 64 193 1.0 2.0 0.00 0.00 0.00 78 1014.6
20260509002053 64 193 1.0 3.0 0.00 0.00 0.00 77 1014.5
20260509001603 64 193 1.0 4.0 0.00 0.00 0.00 76 1014.6
20260509001519 64 193 0.0 4.0 0.00 0.00 0.00 76 1014.0
20260509001046 65 193 2.0 6.0 0.00 0.00 0.00 76 1014.4
20260509000556 65 177 1.0 5.0 0.00 0.00 0.00 76 1014.5
20260509000107 65 192 2.0 5.0 0.00 0.00 0.00 75 1014.4
20260508235551 65 157 1.0 5.0 0.00 0.00 0.00 75 1014.4
20260508235102 65 182 2.0 4.0 0.00 0.00 0.00 74 1014.5
20260508234552 65 169 1.0 3.0 0.00 0.00 0.00 74 1014.6
20260508234059 65 150 1.0 4.0 0.00 0.00 0.00 74 1014.7
20260508233550 65 186 1.0 5.0 0.00 0.00 0.00 74 1014.3
20260508233052 66 178 1.0 4.0 0.00 0.00 0.00 73 1014.4
20260508232556 66 175 2.0 4.0 0.00 0.00 0.00 73 1014.6
20260508232044 66 169 1.0 6.0 0.00 0.00 0.00 73 1014.6
20260508231554 66 173 2.0 6.0 0.00 0.00 0.00 73 1014.5
20260508225552 67 177 1.0 4.0 0.00 0.00 0.00 71 1014.0
20260508224547 67 131 1.0 4.0 0.00 0.00 0.00 71 1013.7
20260508223548 67 169 2.0 6.0 0.00 0.00 0.00 70 1013.8
20260508223059 68 104 1.0 5.0 0.00 0.00 0.00 70 1013.8
20260508222600 67 223 3.0 5.0 0.00 0.00 0.00 69 1013.8
20260508221559 68 158 0.0 3.0 0.00 0.00 0.00 68 1014.1
20260508221105 68 158 1.0 3.0 0.00 0.00 0.00 68 1014.2
20260508220552 68 184 2.0 5.0 0.00 0.00 0.00 68 1014.1
20260508215548 68 173 1.0 4.0 0.00 0.00 0.00 67 1014.3
20260508215056 68 169 1.0 4.0 0.00 0.00 0.00 65 1014.0
20260508214601 68 193 1.0 4.0 0.00 0.00 0.00 66 1013.9
20260508214049 68 108 1.0 6.0 0.00 0.00 0.00 66 1014.0
20260508213557 68 278 3.0 6.0 0.00 0.00 0.00 65 1014.3
20260508212551 68 148 2.0 7.0 0.00 0.00 0.00 64 1013.9
20260508212102 68 157 2.0 5.0 0.00 0.00 0.00 66 1014.2
20260508211551 68 159 2.0 6.0 0.00 0.00 0.00 66 1014.3
20260508210608 69 186 2.0 6.0 0.00 0.00 0.00 65 1014.3
20260508210125 69 148 1.0 5.0 0.00 0.00 0.00 64 1014.5
20260508210018 68 148 2.0 5.0 0.00 0.00 0.00 64 1013.9
20260508205545 69 186 3.0 5.0 0.00 0.00 0.00 63 1014.3
20260508205056 69 84 2.0 5.0 0.00 0.00 0.00 62 1014.2
20260508204602 69 194 3.0 5.0 0.00 0.00 0.00 63 1014.3
20260508203557 69 90 1.0 6.0 0.00 0.00 0.00 63 1014.2
20260508203107 69 113 2.0 6.0 0.00 0.00 0.00 63 1014.3
20260508202552 69 92 2.0 4.0 0.00 0.00 0.00 62 1014.3
20260508202100 69 103 1.0 7.0 0.00 0.00 0.00 62 1014.2
20260508201101 70 84 3.0 5.0 0.00 0.00 0.00 62 1014.2
20260508200553 70 193 1.0 3.0 0.00 0.00 0.00 63 1014.3
20260508195602 70 155 2.0 5.0 0.00 0.00 0.00 61 1014.3
20260508195049 70 112 2.0 7.0 0.00 0.00 0.00 60 1014.4
20260508194559 70 192 3.0 7.0 0.00 0.00 0.00 58 1014.3
20260508194047 70 200 2.0 6.0 0.00 0.00 0.00 58 1014.3
20260508192551 70 200 0.0 4.0 0.00 0.00 0.00 57 1014.8
20260508192101 70 202 2.0 4.0 0.00 0.00 0.00 56 1014.8
20260508191552 70 88 2.0 4.0 0.00 0.00 0.00 56 1014.9
20260508191102 70 176 1.0 4.0 0.00 0.00 0.00 55 1014.9
20260508190554 69 53 0.0 2.0 0.00 0.00 0.00 57 1015.0
20260508190106 70 53 1.0 3.0 0.00 0.00 0.00 56 1014.9
20260508185549 70 134 1.0 2.0 0.00 0.00 0.00 57 1015.0
20260508184603 70 101 2.0 5.0 0.00 0.00 0.00 53 1015.1
20260508184051 71 87 2.0 4.0 0.00 0.00 0.00 54 1015.2
20260508183559 71 158 2.0 5.0 0.00 0.00 0.00 55 1015.4
20260508183049 70 108 2.0 8.0 0.00 0.00 0.00 57 1015.6
20260508182555 71 195 5.0 8.0 0.00 0.00 0.00 56 1015.6
20260508182044 70 91 2.0 5.0 0.00 0.00 0.00 57 1015.5
20260508181554 70 105 1.0 4.0 0.00 0.00 0.00 59 1015.5
20260508181059 70 96 2.0 5.0 0.00 0.00 0.00 55 1015.7
20260508180549 70 169 2.0 5.0 0.00 0.00 0.00 56 1015.8
20260508180101 69 165 2.0 4.0 0.00 0.00 0.00 55 1015.9
20260508175605 70 109 2.0 4.0 0.00 0.01 0.00 55 1015.9
20260508175050 70 86 1.0 4.0 0.00 0.01 0.00 55 1015.9
20260508174558 70 110 1.0 4.0 0.00 0.01 0.00 52 1016.0
20260508174049 70 153 1.0 6.0 0.00 0.01 0.00 55 1015.9
20260508173602 70 204 4.0 8.0 0.00 0.01 0.00 52 1016.0
20260508173053 69 120 4.0 8.0 0.00 0.01 0.00 55 1016.2
20260508172554 69 112 2.0 4.0 0.00 0.01 0.00 55 1016.2
20260508171045 69 117 2.0 5.0 0.00 0.01 0.00 60 1016.6
20260508170554 69 93 2.0 5.0 0.00 0.01 0.00 61 1016.7
20260508170505 68 162 1.0 5.0 0.00 0.01 0.00 59 1016.1
20260508170132 68 153 2.0 4.0 0.00 0.01 0.00 60 1016.7
20260508170020 68 122 1.0 4.0 0.00 0.01 0.00 61 1016.2
20260508165546 68 147 1.0 4.0 0.00 0.01 0.00 61 1016.8
20260508165058 67 139 1.0 4.0 0.00 0.01 0.00 63 1016.6
20260508164606 67 151 1.0 5.0 0.00 0.01 0.00 62 1016.9
20260508164054 67 219 2.0 5.0 0.00 0.01 0.00 60 1017.0
20260508163602 66 115 0.0 3.0 0.00 0.01 0.00 66 1016.9
20260508163051 66 115 0.0 3.0 0.00 0.01 0.00 62 1017.1